Content
SEND FEEDBACK

Daily
Averages
Monthly
Summary
United States of America

RAPID CITY, SOUTH DAKOTA


Home > North America > United States > South Dakota
Elevation: 3162 feet     Latitude: 44 03N     Longitude: 103 04W

WEATHER
 
SELECT A DAY
Number of Records: 200,504;   Date Range: 1/1/95 - 9/16/14
 
SHARE

PRINT THIS DATA

[ ← Previous Day ]
WEATHER ALMANAC - JULY 13, 2013
[ Next Day → ]
[ °C ]   °F
Weather ElementAverageHighLow
Temperature79.5 °F91.9 °F (3:52 pm)64 °F (4:52 am)
Dewpoint59.7 °F62.1 °F (2:52 pm)55 °F (1:52 am)
Humidity52.7 %78 % (4:52 am)34 % (3:52 pm)
Barometer29.88 in29.93 in (11:52 pm)29.83 in (6:52 pm)
Wind Speed7.9 mph16.1 mph (11:52 pm)
Wind Gust26.5 mph (1:52 pm)
Weather ElementAverage
Visibility10 mi
Wind DirectionSSE (144.3 °)

Weather ElementTotal
Precipitation---
Cooling Degree Days13 (Base 65)
Growing Degree Days28 (Base 50)
Averaged from 23 records on July 13, 2013
WEATHER CONDITIONS BREAKOUT
WIND DIRECTION BREAKOUT
WEATHER BY HOUR - JULY 13, 2013
[ °C ]   °F
Local TimeTemperatureDewpointHumidityBarometerVisibilityWind DirectionWind SpeedGust SpeedPrecipitationEventsConditions
1:52 AM69.1 °F55.0 °F61 %29.89 in10.0 miNNW (330°)4.6 mphClear
2:52 AM66.9 °F55.9 °F68 %29.88 in10.0 miNE (40°)6.9 mphClear
3:52 AM66.9 °F57.0 °F70 %29.87 in10.0 miCalmScattered Clouds
4:52 AM64.0 °F57.0 °F78 %29.88 in10.0 miCalmMostly Cloudy
5:52 AM64.0 °F57.0 °F78 %29.90 in10.0 miCalmScattered Clouds
6:52 AM70.0 °F57.9 °F65 %29.91 in10.0 miCalmPartly Cloudy
7:52 AM73.9 °F57.9 °F57 %29.91 in10.0 miSSE (150°)8.1 mphClear
8:52 AM79.0 °F61.0 °F54 %29.91 in10.0 miSSE (150°)11.5 mphClear
9:52 AM81.0 °F60.1 °F49 %29.91 in10.0 miSSE (150°)11.5 mphClear
10:52 AM82.9 °F60.1 °F46 %29.90 in10.0 miSouth (190°)12.7 mph19.6 mphClear
11:52 AM87.1 °F60.1 °F40 %29.90 in10.0 miSouth (180°)12.7 mph20.7 mphClear
12:52 PM88.0 °F61.0 °F40 %29.88 in10.0 miSE (130°)8.1 mph20.7 mphClear
1:52 PM91.0 °F61.0 °F36 %29.86 in10.0 miSouth (170°)12.7 mph26.5 mphClear
2:52 PM90.0 °F62.1 °F39 %29.85 in10.0 miSE (140°)15.0 mphClear
3:52 PM91.9 °F60.1 °F34 %29.84 in10.0 miSE (140°)9.2 mphClear
4:52 PM91.0 °F61.0 °F36 %29.85 in10.0 miSE (140°)11.5 mphClear
5:52 PM91.0 °F61.0 °F36 %29.85 in10.0 miSSE (150°)9.2 mphClear
6:52 PM89.1 °F61.0 °F39 %29.83 in10.0 miSE (140°)6.9 mphClear
7:52 PM86.0 °F61.0 °F43 %29.85 in10.0 miESE (120°)3.5 mphClear
8:52 PM80.1 °F62.1 °F54 %29.88 in10.0 miNNW (340°)9.2 mphScattered Clouds
9:52 PM75.9 °F61.0 °F60 %29.90 in10.0 miNW (310°)5.8 mphClear
10:52 PM75.0 °F61.0 °F62 %29.90 in10.0 miNNW (330°)5.8 mphClear
11:52 PM73.9 °F62.1 °F66 %29.93 in10.0 miNNE (20°)16.1 mphClear
Hourly data recorded from KRAP, located miles away from Rapid City, South Dakota







STORIES FROM OUR PARTNERS